Time,TemperatureF,DewpointF,PressureIn,WindDirection,WindDirectionDegrees,WindSpeedMPH,WindSpeedGustMPH,Humidity,HourlyPrecipIn,Conditions,Clouds,dailyrainin,SolarRadiationWatts/m^2,SoftwareType,DateUTC
2013-04-03 00:03:00,44.0,15.0,-100.00,North,-999,-999.0,-999.0,31,0.00,,,0.00,0.000000,,2013-04-03 04:03:00,
2013-04-03 00:10:00,42.0,14.0,-100.00,North,-999,-999.0,-999.0,31,0.00,,,0.00,0.000000,,2013-04-03 04:10:00,
2013-04-03 00:33:00,42.0,14.0,-100.00,North,-999,-999.0,-999.0,31,0.00,,,0.00,0.000000,,2013-04-03 04:33:00,
2013-04-03 00:43:00,42.0,14.0,-100.00,North,-999,-999.0,-999.0,31,0.00,,,0.00,0.000000,,2013-04-03 04:43:00,
2013-04-03 00:53:00,42.0,14.0,-100.00,North,-999,-999.0,-999.0,31,0.00,,,0.00,0.000000,,2013-04-03 04:53:00,
2013-04-03 01:03:00,42.0,14.0,-100.00,North,-999,-999.0,-999.0,31,0.00,,,0.00,0.000000,,2013-04-03 05:03:00,
2013-04-03 01:10:00,42.0,12.0,-100.00,North,-999,-999.0,-999.0,29,0.00,,,0.00,0.000000,,2013-04-03 05:10:00,
2013-04-03 01:42:00,42.0,12.0,-100.00,North,-999,-999.0,-999.0,29,0.00,,,0.00,0.000000,,2013-04-03 05:42:00,
2013-04-03 01:53:00,42.0,12.0,-100.00,North,-999,-999.0,-999.0,29,0.00,,,0.00,0.000000,,2013-04-03 05:53:00,
2013-04-03 02:03:00,42.0,12.0,-100.00,North,-999,-999.0,-999.0,29,0.00,,,0.00,0.000000,,2013-04-03 06:03:00,
2013-04-03 02:10:00,37.0,9.0,-100.00,North,-999,-999.0,-999.0,31,0.00,,,0.00,0.000000,,2013-04-03 06:10:00,
2013-04-03 02:32:00,37.0,9.0,-100.00,North,-999,-999.0,-999.0,31,0.00,,,0.00,0.000000,,2013-04-03 06:32:00,
2013-04-03 02:42:00,37.0,9.0,-100.00,North,-999,-999.0,-999.0,31,0.00,,,0.00,0.000000,,2013-04-03 06:42:00,
2013-04-03 02:52:00,37.0,9.0,-100.00,North,-999,-999.0,-999.0,31,0.00,,,0.00,0.000000,,2013-04-03 06:52:00,
2013-04-03 03:02:00,37.0,9.0,-100.00,North,-999,-999.0,-999.0,31,0.00,,,0.00,0.000000,,2013-04-03 07:02:00,
2013-04-03 03:10:00,36.0,9.0,-100.00,North,-999,-999.0,-999.0,32,0.00,,,-99.99,0.000000,,2013-04-03 07:10:00,
2013-04-03 03:33:00,36.0,9.0,-100.00,North,-999,-999.0,-999.0,32,0.00,,,-99.99,0.000000,,2013-04-03 07:33:00,
2013-04-03 03:43:00,36.0,9.0,-100.00,North,-999,-999.0,-999.0,32,0.00,,,-99.99,0.000000,,2013-04-03 07:43:00,
2013-04-03 03:53:00,36.0,9.0,-100.00,North,-999,-999.0,-999.0,32,0.00,,,-99.99,0.000000,,2013-04-03 07:53:00,
2013-04-03 04:03:00,36.0,9.0,-100.00,North,-999,-999.0,-999.0,32,0.00,,,-99.99,0.000000,,2013-04-03 08:03:00,
2013-04-03 04:10:00,34.0,9.0,-100.00,North,-999,-999.0,-999.0,35,0.00,,,0.00,0.000000,,2013-04-03 08:10:00,
2013-04-03 04:33:00,34.0,9.0,-100.00,North,-999,-999.0,-999.0,35,0.00,,,0.00,0.000000,,2013-04-03 08:33:00,
2013-04-03 04:43:00,34.0,9.0,-100.00,North,-999,-999.0,-999.0,35,0.00,,,0.00,0.000000,,2013-04-03 08:43:00,
2013-04-03 04:52:00,34.0,9.0,-100.00,North,-999,-999.0,-999.0,35,0.00,,,0.00,0.000000,,2013-04-03 08:52:00,
2013-04-03 05:02:00,34.0,9.0,-100.00,North,-999,-999.0,-999.0,35,0.00,,,0.00,0.000000,,2013-04-03 09:02:00,
2013-04-03 05:10:00,34.0,12.0,-100.00,North,-999,-999.0,-999.0,39,0.00,,,0.00,0.000000,,2013-04-03 09:10:00,
2013-04-03 05:43:00,34.0,12.0,-100.00,North,-999,-999.0,-999.0,39,0.00,,,0.00,0.000000,,2013-04-03 09:43:00,
2013-04-03 05:53:00,34.0,12.0,-100.00,North,-999,-999.0,-999.0,39,0.00,,,0.00,0.000000,,2013-04-03 09:53:00,
2013-04-03 06:03:00,34.0,12.0,-100.00,North,-999,-999.0,-999.0,39,0.00,,,0.00,0.000000,,2013-04-03 10:03:00,
2013-04-03 06:10:00,32.0,12.0,-100.00,North,-999,-999.0,-999.0,42,0.00,,,0.00,0.000000,,2013-04-03 10:10:00,
2013-04-03 06:43:00,32.0,12.0,-100.00,North,-999,-999.0,-999.0,42,0.00,,,0.00,0.000000,,2013-04-03 10:43:00,
2013-04-03 06:53:00,32.0,12.0,-100.00,North,-999,-999.0,-999.0,42,0.00,,,0.00,0.000000,,2013-04-03 10:53:00,
2013-04-03 07:02:00,32.0,12.0,-100.00,North,-999,-999.0,-999.0,42,0.00,,,0.00,0.000000,,2013-04-03 11:02:00,
2013-04-03 07:10:00,33.0,13.0,-100.00,North,-999,-999.0,-999.0,44,0.00,,,0.00,0.000000,,2013-04-03 11:10:00,
2013-04-03 07:42:00,33.0,13.0,-100.00,North,-999,-999.0,-999.0,44,0.00,,,0.00,0.000000,,2013-04-03 11:42:00,
2013-04-03 07:53:00,33.0,13.0,-100.00,North,-999,-999.0,-999.0,44,0.00,,,0.00,0.000000,,2013-04-03 11:53:00,
2013-04-03 08:02:00,33.0,13.0,-100.00,North,-999,-999.0,-999.0,44,0.00,,,0.00,0.000000,,2013-04-03 12:02:00,
2013-04-03 08:10:00,33.0,14.0,-100.00,North,-999,-999.0,-999.0,45,0.00,,,-99.99,0.000000,,2013-04-03 12:10:00,
2013-04-03 08:33:00,33.0,14.0,-100.00,North,-999,-999.0,-999.0,45,0.00,,,-99.99,0.000000,,2013-04-03 12:33:00,
2013-04-03 08:42:00,33.0,14.0,-100.00,North,-999,-999.0,-999.0,45,0.00,,,-99.99,0.000000,,2013-04-03 12:42:00,
2013-04-03 08:52:00,33.0,14.0,-100.00,North,-999,-999.0,-999.0,45,0.00,,,-99.99,0.000000,,2013-04-03 12:52:00,
2013-04-03 09:02:00,33.0,14.0,-100.00,North,-999,-999.0,-999.0,45,0.00,,,-99.99,0.000000,,2013-04-03 13:02:00,
2013-04-03 09:10:00,39.0,14.0,-100.00,North,-999,-999.0,-999.0,35,0.00,,,0.00,0.000000,,2013-04-03 13:10:00,
2013-04-03 09:42:00,39.0,14.0,-100.00,North,-999,-999.0,-999.0,35,0.00,,,0.00,0.000000,,2013-04-03 13:42:00,
2013-04-03 09:52:00,39.0,14.0,-100.00,North,-999,-999.0,-999.0,35,0.00,,,0.00,0.000000,,2013-04-03 13:52:00,
2013-04-03 10:02:00,39.0,14.0,-100.00,North,-999,-999.0,-999.0,35,0.00,,,0.00,0.000000,,2013-04-03 14:02:00,
2013-04-03 10:10:00,45.0,14.0,-100.00,North,-999,-999.0,-999.0,28,0.00,,,0.00,0.000000,,2013-04-03 14:10:00,
2013-04-03 10:43:00,45.0,14.0,-100.00,North,-999,-999.0,-999.0,28,0.00,,,0.00,0.000000,,2013-04-03 14:43:00,
2013-04-03 10:52:00,45.0,14.0,-100.00,North,-999,-999.0,-999.0,28,0.00,,,0.00,0.000000,,2013-04-03 14:52:00,
2013-04-03 11:02:00,45.0,14.0,-100.00,North,-999,-999.0,-999.0,28,0.00,,,0.00,0.000000,,2013-04-03 15:02:00,
2013-04-03 11:10:00,49.0,13.0,-100.00,North,-999,-999.0,-999.0,23,0.00,,,0.00,0.000000,,2013-04-03 15:10:00,
2013-04-03 11:43:00,49.0,13.0,-100.00,North,-999,-999.0,-999.0,23,0.00,,,0.00,0.000000,,2013-04-03 15:43:00,
2013-04-03 11:53:00,49.0,13.0,-100.00,North,-999,-999.0,-999.0,23,0.00,,,0.00,0.000000,,2013-04-03 15:53:00,
2013-04-03 12:04:00,49.0,13.0,-100.00,North,-999,-999.0,-999.0,23,0.00,,,0.00,0.000000,,2013-04-03 16:04:00,
2013-04-03 12:10:00,49.0,11.0,-100.00,North,-999,-999.0,-999.0,21,0.00,,,0.00,0.000000,,2013-04-03 16:10:00,
2013-04-03 12:44:00,49.0,11.0,-100.00,North,-999,-999.0,-999.0,21,0.00,,,0.00,0.000000,,2013-04-03 16:44:00,
2013-04-03 12:53:00,49.0,11.0,-100.00,North,-999,-999.0,-999.0,21,0.00,,,0.00,0.000000,,2013-04-03 16:53:00,
2013-04-03 13:03:00,49.0,11.0,-100.00,North,-999,-999.0,-999.0,21,0.00,,,0.00,0.000000,,2013-04-03 17:03:00,
2013-04-03 13:10:00,54.0,15.0,-100.00,North,-999,-999.0,-999.0,21,0.00,,,0.00,0.000000,,2013-04-03 17:10:00,
2013-04-03 13:35:00,54.0,15.0,-100.00,North,-999,-999.0,-999.0,21,0.00,,,0.00,0.000000,,2013-04-03 17:35:00,
2013-04-03 13:47:00,54.0,15.0,-100.00,North,-999,-999.0,-999.0,21,0.00,,,0.00,0.000000,,2013-04-03 17:47:00,
2013-04-03 13:54:00,54.0,15.0,-100.00,North,-999,-999.0,-999.0,21,0.00,,,0.00,0.000000,,2013-04-03 17:54:00,
2013-04-03 14:02:00,54.0,15.0,-100.00,North,-999,-999.0,-999.0,21,0.00,,,0.00,0.000000,,2013-04-03 18:02:00,
2013-04-03 14:10:00,58.0,15.0,-100.00,North,-999,-999.0,-999.0,18,0.00,,,0.00,0.000000,,2013-04-03 18:10:00,
2013-04-03 14:35:00,58.0,15.0,-100.00,North,-999,-999.0,-999.0,18,0.00,,,0.00,0.000000,,2013-04-03 18:35:00,
2013-04-03 14:43:00,58.0,15.0,-100.00,North,-999,-999.0,-999.0,18,0.00,,,0.00,0.000000,,2013-04-03 18:43:00,
2013-04-03 14:52:00,58.0,15.0,-100.00,North,-999,-999.0,-999.0,18,0.00,,,0.00,0.000000,,2013-04-03 18:52:00,
2013-04-03 15:03:00,58.0,15.0,-100.00,North,-999,-999.0,-999.0,18,0.00,,,0.00,0.000000,,2013-04-03 19:03:00,
2013-04-03 15:10:00,57.0,15.0,-100.00,North,-999,-999.0,-999.0,19,0.00,,,0.00,0.000000,,2013-04-03 19:10:00,
2013-04-03 15:42:00,57.0,15.0,-100.00,North,-999,-999.0,-999.0,19,0.00,,,0.00,0.000000,,2013-04-03 19:42:00,
2013-04-03 15:52:00,57.0,15.0,-100.00,North,-999,-999.0,-999.0,19,0.00,,,0.00,0.000000,,2013-04-03 19:52:00,
2013-04-03 16:02:00,57.0,15.0,-100.00,North,-999,-999.0,-999.0,19,0.00,,,0.00,0.000000,,2013-04-03 20:02:00,
2013-04-03 16:10:00,59.0,16.0,-100.00,North,-999,-999.0,-999.0,18,0.00,,,0.00,0.000000,,2013-04-03 20:10:00,
2013-04-03 16:42:00,59.0,16.0,-100.00,North,-999,-999.0,-999.0,18,0.00,,,0.00,0.000000,,2013-04-03 20:42:00,
2013-04-03 16:54:00,59.0,16.0,-100.00,North,-999,-999.0,-999.0,18,0.00,,,0.00,0.000000,,2013-04-03 20:54:00,
2013-04-03 17:03:00,59.0,16.0,-100.00,North,-999,-999.0,-999.0,18,0.00,,,0.00,0.000000,,2013-04-03 21:03:00,
2013-04-03 17:10:00,57.0,16.0,-100.00,North,-999,-999.0,-999.0,20,0.00,,,-99.99,0.000000,,2013-04-03 21:10:00,
2013-04-03 17:33:00,57.0,16.0,-100.00,North,-999,-999.0,-999.0,20,0.00,,,-99.99,0.000000,,2013-04-03 21:33:00,
2013-04-03 17:42:00,57.0,16.0,-100.00,North,-999,-999.0,-999.0,20,0.00,,,-99.99,0.000000,,2013-04-03 21:42:00,
2013-04-03 17:52:00,57.0,16.0,-100.00,North,-999,-999.0,-999.0,20,0.00,,,-99.99,0.000000,,2013-04-03 21:52:00,
2013-04-03 18:02:00,57.0,16.0,-100.00,North,-999,-999.0,-999.0,20,0.00,,,-99.99,0.000000,,2013-04-03 22:02:00,
2013-04-03 18:10:00,54.0,16.0,-100.00,North,-999,-999.0,-999.0,22,0.00,,,0.00,0.000000,,2013-04-03 22:10:00,
2013-04-03 18:33:00,54.0,16.0,-100.00,North,-999,-999.0,-999.0,22,0.00,,,0.00,0.000000,,2013-04-03 22:33:00,
2013-04-03 18:42:00,54.0,16.0,-100.00,North,-999,-999.0,-999.0,22,0.00,,,0.00,0.000000,,2013-04-03 22:42:00,
2013-04-03 18:53:00,54.0,16.0,-100.00,North,-999,-999.0,-999.0,22,0.00,,,0.00,0.000000,,2013-04-03 22:53:00,
2013-04-03 19:02:00,54.0,16.0,-100.00,North,-999,-999.0,-999.0,22,0.00,,,0.00,0.000000,,2013-04-03 23:02:00,
2013-04-03 19:10:00,50.0,7.0,-100.00,North,-999,-999.0,-999.0,17,0.00,,,0.00,0.000000,,2013-04-03 23:10:00,
2013-04-03 19:33:00,50.0,7.0,-100.00,North,-999,-999.0,-999.0,17,0.00,,,0.00,0.000000,,2013-04-03 23:33:00,
2013-04-03 19:43:00,50.0,7.0,-100.00,North,-999,-999.0,-999.0,17,0.00,,,0.00,0.000000,,2013-04-03 23:43:00,
2013-04-03 19:55:00,50.0,7.0,-100.00,North,-999,-999.0,-999.0,17,0.00,,,0.00,0.000000,,2013-04-03 23:55:00,
2013-04-03 20:03:00,50.0,7.0,-100.00,North,-999,-999.0,-999.0,17,0.00,,,0.00,0.000000,,2013-04-04 00:03:00,
2013-04-03 20:10:00,48.0,11.0,-100.00,North,-999,-999.0,-999.0,22,0.00,,,0.00,0.000000,,2013-04-04 00:10:00,
2013-04-03 20:32:00,48.0,11.0,-100.00,North,-999,-999.0,-999.0,22,0.00,,,0.00,0.000000,,2013-04-04 00:32:00,
2013-04-03 20:43:00,48.0,11.0,-100.00,North,-999,-999.0,-999.0,22,0.00,,,0.00,0.000000,,2013-04-04 00:43:00,
2013-04-03 20:52:00,48.0,11.0,-100.00,North,-999,-999.0,-999.0,22,0.00,,,0.00,0.000000,,2013-04-04 00:52:00,
2013-04-03 21:02:00,48.0,11.0,-100.00,North,-999,-999.0,-999.0,22,0.00,,,0.00,0.000000,,2013-04-04 01:02:00,
2013-04-03 21:10:00,45.0,10.0,-100.00,North,-999,-999.0,-999.0,24,0.00,,,0.00,0.000000,,2013-04-04 01:10:00,
2013-04-03 21:32:00,45.0,10.0,-100.00,North,-999,-999.0,-999.0,24,0.00,,,0.00,0.000000,,2013-04-04 01:32:00,
2013-04-03 21:43:00,45.0,10.0,-100.00,North,-999,-999.0,-999.0,24,0.00,,,0.00,0.000000,,2013-04-04 01:43:00,
2013-04-03 21:53:00,45.0,10.0,-100.00,North,-999,-999.0,-999.0,24,0.00,,,0.00,0.000000,,2013-04-04 01:53:00,
2013-04-03 22:02:00,45.0,10.0,-100.00,North,-999,-999.0,-999.0,24,0.00,,,0.00,0.000000,,2013-04-04 02:02:00,
2013-04-03 22:10:00,44.0,9.0,-100.00,North,-999,-999.0,-999.0,23,0.00,,,0.00,0.000000,,2013-04-04 02:10:00,
2013-04-03 23:02:00,44.0,9.0,-100.00,North,-999,-999.0,-999.0,23,0.00,,,0.00,0.000000,,2013-04-04 03:02:00,
2013-04-03 23:10:00,45.0,10.0,-100.00,North,-999,-999.0,-999.0,24,0.00,,,0.00,0.000000,,2013-04-04 03:10:00,
2013-04-03 23:34:00,45.0,10.0,-100.00,North,-999,-999.0,-999.0,24,0.00,,,0.00,0.000000,,2013-04-04 03:34:00,
2013-04-03 23:45:00,45.0,10.0,-100.00,North,-999,-999.0,-999.0,24,0.00,,,0.00,0.000000,,2013-04-04 03:45:00,
2013-04-03 23:53:00,45.0,10.0,-100.00,North,-999,-999.0,-999.0,24,0.00,,,0.00,0.000000,,2013-04-04 03:53:00,